Simultaneous Nadir Overpasses (SNOs) Predictions

Prediction of SNOs near US between NOAA-19 and NPP Satellite Orbit:

Table of predicted SNOs near US for the next 10.0 days since TLE Epoch: 9/14/2012
Index Date (NOAA-19) Time (NOAA-19) NOAA-19 Lat,Lon Date (NPP) Time (NPP) NPP Lat,Lon Distance(km) Time Diff (sec)
1 09/14/2012 19:58:40 43.33,-104.75 09/14/2012 20:00:36 42.78,-107.50 231.66 116
2 09/15/2012 06:37:05 43.96, -67.32 09/15/2012 06:35:27 44.37, -69.51 180.47 98
3 09/15/2012 08:19:39 42.29, -93.45 09/15/2012 08:17:26 42.68, -95.50 173.40 133
4 09/15/2012 10:02:19 40.27,-119.68 09/15/2012 09:59:31 40.64,-121.59 166.28 168
5 09/15/2012 18:07:42 49.98, -79.24 09/15/2012 18:02:06 49.81, -80.16 68.93 336
6 09/15/2012 19:49:46 49.98,-104.75 09/15/2012 19:43:35 49.82,-105.54 58.86 371
